• In Hungary
  • List of Countries
  • For 7 days
  • Water Temperature
  • Satellite Maps
  • Weather Map
  • News
  • Weather Widgets
  • user-avatar
    Login

    Hourly Weather Vitbino

    Today, 18 September, Tuesday

    Time Temperature Precipitation Wind Pressure Humidity
    00:00 +12°C° 0.1 mm 4 mps 737 mmHg 90%
    01:00 +11°C° 0.1 mm 4 mps 737 mmHg 92%
    02:00 +11°C° 0 mm 3 mps 737 mmHg 95%
    03:00 +11°C° 0 mm 3 mps 737 mmHg 95%
    04:00 +11°C° 0 mm 4 mps 737 mmHg 95%
    05:00 +10°C° 0 mm 4 mps 738 mmHg 95%
    06:00 +10°C° 0 mm 4 mps 738 mmHg 93%
    07:00 +11°C° 0 mm 4 mps 738 mmHg 92%
    08:00 +11°C° 0 mm 4 mps 739 mmHg 89%
    09:00 +11°C° 0 mm 4 mps 739 mmHg 85%
    10:00 +12°C° 0 mm 4 mps 739 mmHg 81%
    11:00 +12°C° 0 mm 4 mps 740 mmHg 77%
    12:00 +13°C° 0 mm 4 mps 740 mmHg 70%
    13:00 +15°C° 0 mm 4 mps 740 mmHg 64%
    14:00 +17°C° 0 mm 4 mps 740 mmHg 57%
    15:00 +16°C° 0 mm 3 mps 740 mmHg 62%
    16:00 +15°C° 0 mm 2 mps 740 mmHg 66%
    17:00 +15°C° 0 mm 2 mps 740 mmHg 71%
    18:00 +13°C° 0 mm 2 mps 740 mmHg 77%
    19:00 +12°C° 0 mm 2 mps 740 mmHg 83%
    20:00 +10°C° 0 mm 2 mps 740 mmHg 89%
    21:00 +10°C° 0 mm 2 mps 740 mmHg 89%
    22:00 +10°C° 0 mm 2 mps 740 mmHg 90%
    23:00 +10°C° 0 mm 2 mps 740 mmHg 90%

    Tomorrow, 19 September, Wednesday

    Time Temperature Precipitation Wind Pressure Humidity
    00:00 +10°C° 0.2 mm 2 mps 740 mmHg 91%
    01:00 +12°C° 0.2 mm 2 mps 740 mmHg 92%
    02:00 +11°C° 0.2 mm 3 mps 740 mmHg 93%
    03:00 +11°C° 0 mm 3 mps 740 mmHg 94%
    04:00 +11°C° 0 mm 3 mps 740 mmHg 96%
    05:00 +11°C° 0 mm 3 mps 740 mmHg 97%
    06:00 +12°C° 0 mm 3 mps 739 mmHg 94%
    07:00 +13°C° 0 mm 3 mps 739 mmHg 91%
    08:00 +14°C° 0 mm 3 mps 739 mmHg 87%
    09:00 +16°C° 0 mm 3 mps 739 mmHg 79%
    10:00 +18°C° 0 mm 4 mps 739 mmHg 71%
    11:00 +20°C° 0 mm 4 mps 739 mmHg 63%
    12:00 +21°C° 0 mm 4 mps 739 mmHg 59%
    13:00 +22°C° 0 mm 4 mps 739 mmHg 56%
    14:00 +23°C° 0 mm 4 mps 739 mmHg 52%
    15:00 +22°C° 0 mm 4 mps 739 mmHg 59%
    16:00 +21°C° 0 mm 3 mps 739 mmHg 65%
    17:00 +20°C° 0 mm 2 mps 738 mmHg 71%
    18:00 +19°C° 0 mm 3 mps 738 mmHg 76%
    19:00 +17°C° 0 mm 3 mps 738 mmHg 82%
    20:00 +16°C° 0 mm 3 mps 739 mmHg 87%
    21:00 +16°C° 0 mm 3 mps 739 mmHg 88%
    22:00 +16°C° 0 mm 3 mps 739 mmHg 90%
    23:00 +16°C° 0 mm 3 mps 739 mmHg 92%

    Day after tomorrow, 20 September, Thursday

    Time Temperature Precipitation Wind Pressure Humidity
    00:00 +14°C° 0 mm 3 mps 739 mmHg 94%
    01:00 +14°C° 0 mm 3 mps 739 mmHg 95%
    02:00 +15°C° 0 mm 2 mps 739 mmHg 97%
    03:00 +14°C° 0 mm 2 mps 740 mmHg 97%
    04:00 +13°C° 0 mm 2 mps 740 mmHg 97%
    05:00 +13°C° 0 mm 2 mps 740 mmHg 98%
    06:00 +13°C° 0 mm 2 mps 740 mmHg 95%
    07:00 +14°C° 0 mm 2 mps 740 mmHg 92%
    08:00 +15°C° 0 mm 2 mps 741 mmHg 89%
    09:00 +16°C° 0 mm 3 mps 741 mmHg 82%
    10:00 +18°C° 0 mm 3 mps 741 mmHg 74%
    11:00 +20°C° 0 mm 3 mps 741 mmHg 66%
    12:00 +21°C° 0 mm 3 mps 741 mmHg 63%
    13:00 +21°C° 0 mm 3 mps 741 mmHg 61%
    14:00 +22°C° 0 mm 3 mps 741 mmHg 58%
    15:00 +21°C° 0 mm 2 mps 741 mmHg 63%
    16:00 +20°C° 0 mm 2 mps 741 mmHg 69%
    17:00 +19°C° 0 mm 2 mps 741 mmHg 74%
    18:00 +19°C° 0 mm 1 mps 741 mmHg 79%
    19:00 +16°C° 0 mm 1 mps 741 mmHg 85%
    20:00 +15°C° 0 mm 1 mps 741 mmHg 90%
    21:00 +15°C° 0 mm 1 mps 741 mmHg 92%
    22:00 +14°C° 0 mm 1 mps 741 mmHg 93%
    23:00 +14°C° 0 mm 1 mps 741 mmHg 94%

    21 September, Friday

    Time Temperature Precipitation Wind Pressure Humidity
    00:00 +14°C° 0 mm 1 mps 741 mmHg 95%
    01:00 +13°C° 0 mm 1 mps 742 mmHg 95%
    02:00 +13°C° 0 mm 2 mps 742 mmHg 95%
    03:00 +13°C° 0 mm 2 mps 742 mmHg 95%
    04:00 +13°C° 0 mm 2 mps 742 mmHg 96%
    05:00 +13°C° 0 mm 2 mps 742 mmHg 96%
    06:00 +14°C° 0 mm 2 mps 742 mmHg 91%
    07:00 +15°C° 0 mm 2 mps 742 mmHg 86%
    08:00 +16°C° 0 mm 2 mps 742 mmHg 81%
    09:00 +18°C° 0 mm 2 mps 742 mmHg 76%
    10:00 +20°C° 0 mm 3 mps 742 mmHg 70%
    11:00 +22°C° 0 mm 3 mps 742 mmHg 65%
    12:00 +24°C° 0 mm 3 mps 742 mmHg 63%
    13:00 +24°C° 0 mm 3 mps 741 mmHg 61%
    14:00 +25°C° 0 mm 3 mps 741 mmHg 59%
    15:00 +24°C° 0 mm 3 mps 741 mmHg 65%
    16:00 +23°C° 0 mm 2 mps 741 mmHg 70%
    17:00 +21°C° 0 mm 2 mps 740 mmHg 76%
    18:00 +20°C° 0 mm 2 mps 740 mmHg 80%
    19:00 +19°C° 0 mm 3 mps 740 mmHg 85%
    20:00 +18°C° 0 mm 3 mps 740 mmHg 89%
    21:00 +18°C° 0 mm 3 mps 740 mmHg 89%
    22:00 +17°C° 0 mm 3 mps 739 mmHg 90%
    23:00 +17°C° 0 mm 3 mps 739 mmHg 90%

    22 September, Saturday

    Time Temperature Precipitation Wind Pressure Humidity
    00:00 +17°C° 0 mm 3 mps 739 mmHg 89%
    01:00 +16°C° 0 mm 3 mps 739 mmHg 89%
    02:00 +16°C° 0 mm 3 mps 739 mmHg 88%
    03:00 +15°C° 0 mm 4 mps 738 mmHg 88%
    04:00 +15°C° 0 mm 4 mps 738 mmHg 88%
    05:00 +14°C° 0 mm 4 mps 738 mmHg 87%
    06:00 +15°C° 0 mm 4 mps 738 mmHg 82%
    07:00 +16°C° 0 mm 5 mps 737 mmHg 76%
    08:00 +17°C° 0 mm 5 mps 737 mmHg 71%
    09:00 +20°C° 0 mm 5 mps 737 mmHg 65%
    10:00 +21°C° 0 mm 6 mps 737 mmHg 58%
    11:00 +23°C° 0 mm 6 mps 736 mmHg 52%
    12:00 +23°C° 0 mm 6 mps 736 mmHg 50%
    13:00 +24°C° 0 mm 6 mps 736 mmHg 49%
    14:00 +24°C° 0 mm 6 mps 735 mmHg 47%
    15:00 +23°C° 0 mm 5 mps 735 mmHg 52%
    16:00 +22°C° 0 mm 4 mps 735 mmHg 57%
    17:00 +21°C° 0 mm 3 mps 735 mmHg 62%
    18:00 +19°C° 0.6 mm 3 mps 735 mmHg 69%
    19:00 +18°C° 0.6 mm 3 mps 735 mmHg 76%
    20:00 +17°C° 0.6 mm 3 mps 735 mmHg 84%
    21:00 +16°C° 0.6 mm 3 mps 735 mmHg 87%
    22:00 +14°C° 0.6 mm 3 mps 735 mmHg 91%
    23:00 +13°C° 0.6 mm 2 mps 735 mmHg 94%

    23 September, Sunday

    Time Temperature Precipitation Wind Pressure Humidity
    00:00 +13°C° 0.3 mm 2 mps 735 mmHg 94%
    01:00 +13°C° 0.3 mm 2 mps 735 mmHg 94%
    02:00 +11°C° 0.3 mm 3 mps 735 mmHg 94%
    03:00 +11°C° 0.4 mm 3 mps 736 mmHg 94%
    04:00 +10°C° 0.4 mm 3 mps 736 mmHg 94%
    05:00 +10°C° 0.4 mm 3 mps 736 mmHg 93%
    06:00 +9°C° 0.5 mm 3 mps 736 mmHg 93%
    07:00 +9°C° 0.5 mm 3 mps 736 mmHg 93%
    08:00 +9°C° 0.5 mm 3 mps 736 mmHg 93%
    09:00 +9°C° 0.5 mm 3 mps 737 mmHg 93%
    10:00 +9°C° 0.5 mm 2 mps 737 mmHg 93%
    11:00 +8°C° 0.5 mm 2 mps 737 mmHg 93%
    12:00 +9°C° 0.3 mm 2 mps 738 mmHg 92%
    13:00 +9°C° 0.3 mm 2 mps 738 mmHg 91%
    14:00 +9°C° 0.3 mm 2 mps 738 mmHg 91%
    15:00 +9°C° 0.1 mm 2 mps 738 mmHg 91%
    16:00 +10°C° 0.1 mm 1 mps 738 mmHg 92%
    17:00 +10°C° 0.1 mm 1 mps 739 mmHg 92%
    18:00 +9°C° 0 mm 1 mps 739 mmHg 94%
    19:00 +9°C° 0 mm 1 mps 739 mmHg 95%
    20:00 +8°C° 0 mm 1 mps 739 mmHg 97%
    21:00 +8°C° 0 mm 1 mps 739 mmHg 96%
    22:00 +7°C° 0 mm 1 mps 739 mmHg 96%
    23:00 +7°C° 0 mm 1 mps 739 mmHg 95%
    Show more